Location: Podia
(1.5569°N, 32.3469°E)
Time: 03:50:10
(UTC+00:00)

Hubble Space Telescope - Pass Details

Date: 14 May 2021
Orbit: 535 x 539 km, 28.5° (Epoch: 16 June)

Event Time Altitude Azimuth Distance (km) Brightness Sun altitude
Exits shadow 02:57:47 14° 273° (W) 1,549 2.5 -11.1°
Maximum altitude 03:00:45 30° 331° (NNW) 956 1.9 -10.4°
Drops below altitude 10° 03:04:24 10° 34° (NNE) 1,770 4.3 -9.6°
Sets 03:06:50 0° 44° (NE) 2,657 5.6 -9.0°
